QPF
0.01 0.01 0.01 0.01 0.01 0.01 0.02 0.01 0.01 0.01 0.03 0.04 0.03 0.03 0.03 0.02 0.01 0.02 0.01 0.01 0.01 0.01 0.01 0.02 0.03 0.03 0.02 0.03 0.04 0.04 0.04 0.03 0.02 0.03 0.02 0.03 0.03 0.04 0.04 0.04 0.03 0.03 0.03 0.03
0.02 0.01 0.00 0.01 0.01 0.01 0.01 0.01 0.01 0.02 0.04 0.03 0.03 0.04 0.03 0.02 0.03 0.02 0.01 0.01 0.02 0.02 0.02 0.03 0.02 0.02 0.02 0.02 0.02 0.03 0.03 0.02 0.02 0.02 0.02 0.02 0.02 0.03 0.04 0.04 0.05 0.05 0.05 0.05
0.01 0.01 0.00 0.01 0.01 0.01 0.00 0.01 0.01 0.02 0.03 0.04 0.04 0.04 0.04 0.03 0.03 0.01 0.01 0.01 0.03 0.02 0.02 0.02 0.01 0.01 0.03 0.04 0.03 0.02 0.01 0.01 0.01 0.02 0.02 0.02 0.02 0.03 0.03 0.03 0.03 0.04 0.04 0.04
0.02 0.01 0.01 0.01 0.01 0.01 0.01 0.01 0.01 0.01 0.02 0.04 0.04 0.03 0.03 0.03 0.02 0.01 0.01 0.02 0.03 0.02 0.02 0.02 0.02 0.03 0.05 0.04 0.03 0.01 0.01 0.01 0.02 0.03 0.02 0.02 0.03 0.02 0.02 0.02 0.02 0.02 0.03 0.03
0.02 0.01 0.02 0.02 0.01 0.01 0.01 0.01 0.01 0.01 0.01 0.01 0.02 0.02 0.02 0.02 0.02 0.02 0.02 0.03 0.03 0.02 0.02 0.03 0.04 0.05 0.03 0.02 0.02 0.01 0.01 0.02 0.03 0.02 0.01 0.01 0.02 0.01 0.01 0.01 0.01 0.02 0.02 0.02
0.00 0.01 0.01 0.01 0.01 0.01 0.01 0.01 0.01 0.01 0.01 0.01 0.02 0.03 0.02 0.02 0.02 0.03 0.04 0.05 0.04 0.03 0.04 0.03 0.04 0.03 0.02 0.01 0.01 0.01 0.01 0.01 0.02 0.01 0.00 0.01 0.01 0.01 0.01 0.01 0.01 0.01 0.02 0.02
0.00 0.00 0.01 0.01 0.01 0.01 0.01 0.02 0.01 0.01 0.02 0.02 0.03 0.04 0.04 0.03 0.04 0.04 0.04 0.04 0.04 0.03 0.03 0.03 0.03 0.01 0.01 0.01 0.01 0.01 0.01 0.01 0.01 0.01 0.01 0.01 0.01 0.01 0.01 0.01 0.01 0.02 0.02 0.02
0.02 0.02 0.02 0.01 0.01 0.01 0.01 0.01 0.01 0.02 0.03 0.02 0.04 0.06 0.06 0.06 0.06 0.05 0.03 0.02 0.02 0.02 0.02 0.02 0.01 0.01 0.00 0.01 0.01 0.01 0.01 0.01 0.01 0.01 0.01 0.01 0.01 0.01 0.01 0.01 0.01 0.02 0.02 0.02
0.02 0.02 0.03 0.03 0.02 0.01 0.01 0.01 0.01 0.02 0.03 0.03 0.04 0.06 0.05 0.05 0.04 0.03 0.03 0.02 0.02 0.02 0.02 0.02 0.01 0.01 0.01 0.01 0.01 0.02 0.01 0.01 0.01 0.01 0.00 0.01 0.01 0.01 0.01 0.01 0.01 0.02 0.02 0.02
0.02 0.02 0.01 0.01 0.01 0.01 0.01 0.01 0.01 0.01 0.01 0.01 0.01 0.02 0.02 0.02 0.02 0.01 0.01 0.02 0.01 0.01 0.02 0.02 0.01 0.02 0.01 0.01 0.01 0.02 0.01 0.01 0.01 0.01 0.01 0.01 0.01 0.01 0.01 0.01 0.01 0.01 0.02 0.02
0.02 0.02 0.01 0.01 0.02 0.01 0.01 0.01 0.01 0.01 0.01 0.01 0.01 0.01 0.01 0.01 0.02 0.01 0.01 0.01 0.01 0.02 0.02 0.02 0.01 0.02 0.01 0.01 0.01 0.01 0.01 0.01 0.01 0.01 0.01 0.01 0.02 0.02 0.01 0.01 0.01 0.01 0.02 0.02
0.02 0.01 0.01 0.02 0.02 0.01 0.01 0.01 0.01 0.01 0.01 0.00 0.00 0.00 0.01 0.02 0.02 0.01 0.01 0.01 0.01 0.01 0.01 0.01 0.01 0.01 0.01 0.01 0.00 0.00 0.00 0.00 0.01 0.01 0.01 0.02 0.03 0.02 0.02 0.02 0.02 0.02 0.03 0.03
0.02 0.02 0.01 0.01 0.01 0.00 0.00 0.00 0.01 0.00 0.01 0.01 0.00 0.00 0.01 0.01 0.02 0.01 0.01 0.01 0.01 0.01 0.01 0.01 0.00 0.01 0.01 0.01 0.01 0.00 0.00 0.00 0.00 0.01 0.02 0.02 0.03 0.03 0.03 0.02 0.02 0.03 0.03 0.03
0.02 0.02 0.01 0.01 0.00 0.00 0.00 0.00 0.00 0.00 0.00 0.01 0.01 0.00 0.00 0.01 0.01 0.01 0.01 0.01 0.01 0.01 0.01 0.01 0.00 0.00 0.00 0.00 0.00 0.01 0.01 0.01 0.02 0.02 0.02 0.03 0.03 0.02 0.02 0.01 0.02 0.02 0.02 0.02
0.01 0.01 0.01 0.00 0.00 0.00 0.00 0.00 0.00 0.00 0.01 0.02 0.01 0.01 0.00 0.01 0.01 0.01 0.01 0.01 0.02 0.01 0.02 0.01 0.00 0.00 0.00 0.00 0.00 0.00 0.00 0.01 0.01 0.01 0.01 0.01 0.01 0.01 0.01 0.01 0.01 0.01 0.01 0.01
0.01 0.01 0.01 0.00 0.00 0.00 0.00 0.00 0.00 0.00 0.01 0.01 0.02 0.01 0.00 0.00 0.01 0.01 0.01 0.02 0.02 0.02 0.02 0.01 0.00 0.00 0.00 0.00 0.00 0.01 0.01 0.01 0.01 0.01 0.00 0.00 0.00 0.01 0.01 0.01 0.01 0.01 0.01 0.01
0.01 0.01 0.01 0.00 0.00 0.00 0.00 0.00 0.00 0.00 0.00 0.00 0.01 0.01 0.00 0.01 0.01 0.01 0.01 0.01 0.01 0.02 0.01 0.01 0.01 0.00 0.00 0.00 0.00 0.00 0.00 0.01 0.01 0.01 0.01 0.01 0.00 0.01 0.01 0.01 0.01 0.01 0.01 0.01
0.01 0.01 0.01 0.00 0.00 0.00 0.00 0.00 0.00 0.00 0.00 0.00 0.00 0.01 0.00 0.01 0.01 0.00 0.01 0.01 0.01 0.01 0.01 0.00 0.00 0.00 0.00 0.00 0.00 0.00 0.00 0.00 0.01 0.01 0.00 0.01 0.01 0.01 0.01 0.02 0.01 0.01 0.01 0.01
0.01 0.00 0.00 0.00 0.00 0.00 0.00 0.01 0.01 0.01 0.00 0.00 0.01 0.01 0.01 0.01 0.01 0.02 0.02 0.01 0.01 0.01 0.01 0.00 0.00 0.00 0.00 0.00 0.00 0.01 0.01 0.02 0.02 0.01 0.01 0.00 0.00 0.00 0.01 0.01 0.02 0.01 0.01 0.02
0.01 0.01 0.00 0.00 0.01 0.01 0.01 0.01 0.01 0.01 0.01 0.00 0.01 0.01 0.01 0.01 0.02 0.03 0.02 0.02 0.01 0.01 0.00 0.01 0.00 0.00 0.00 0.00 0.00 0.00 0.01 0.01 0.02 0.01 0.01 0.01 0.00 0.00 0.00 0.00 0.01 0.01 0.01 0.02
0.01 0.01 0.01 0.01 0.01 0.01 0.02 0.02 0.02 0.01 0.01 0.01 0.01 0.01 0.01 0.01 0.02 0.02 0.02 0.02 0.01 0.01 0.01 0.01 0.01 0.01 0.01 0.01 0.01 0.01 0.00 0.00 0.01 0.01 0.00 0.00 0.00 0.00 0.00 0.00 0.00 0.00 0.01 0.01
0.03 0.02 0.01 0.01 0.01 0.01 0.01 0.01 0.01 0.01 0.01 0.01 0.01 0.01 0.01 0.01 0.01 0.02 0.02 0.02 0.02 0.02 0.01 0.01 0.01 0.01 0.01 0.01 0.01 0.01 0.00 0.00 0.00 0.00 0.00 0.00 0.00 0.00 0.00 0.00 0.00 0.00 0.00 0.00
0.04 0.04 0.03 0.02 0.01 0.01 0.01 0.01 0.01 0.01 0.01 0.01 0.01 0.01 0.01 0.01 0.01 0.01 0.01 0.01 0.01 0.02 0.01 0.01 0.01 0.01 0.01 0.01 0.01 0.01 0.01 0.00 0.00 0.00 0.00 0.00 0.00 0.00 0.00 0.00 0.00 0.01 0.01 0.01
0.03 0.03 0.02 0.02 0.02 0.01 0.01 0.01 0.01 0.01 0.02 0.02 0.02 0.02 0.02 0.02 0.02 0.01 0.01 0.02 0.02 0.02 0.01 0.01 0.02 0.02 0.02 0.01 0.01 0.01 0.01 0.00 0.00 0.01 0.01 0.01 0.01 0.00 0.00 0.01 0.01 0.01 0.01 0.01
0.02 0.02 0.02 0.03 0.02 0.02 0.02 0.01 0.01 0.01 0.01 0.02 0.02 0.02 0.03 0.02 0.02 0.02 0.02 0.02 0.03 0.03 0.02 0.02 0.02 0.03 0.02 0.02 0.02 0.01 0.01 0.01 0.01 0.01 0.01 0.01 0.01 0.01 0.01 0.01 0.01 0.01 0.00 0.00
0.03 0.02 0.02 0.02 0.02 0.02 0.02 0.02 0.02 0.01 0.02 0.02 0.02 0.02 0.02 0.02 0.02 0.02 0.03 0.03 0.03 0.03 0.02 0.02 0.02 0.02 0.01 0.01 0.01 0.01 0.01 0.01 0.01 0.01 0.00 0.00 0.00 0.00 0.00 0.00 0.00 0.00 0.00 0.00
0.03 0.03 0.02 0.02 0.01 0.02 0.02 0.02 0.02 0.02 0.03 0.03 0.02 0.02 0.02 0.02 0.02 0.02 0.02 0.02 0.02 0.03 0.03 0.03 0.02 0.01 0.01 0.01 0.01 0.01 0.01 0.01 0.00 0.00 0.00 0.00 0.00 0.00 0.00 0.00 0.00 0.00 0.00 0.00
MSLP
1017.43 1017.58 1017.71 1017.83 1017.95 1018.04 1018.10 1018.12 1018.08 1018.00 1017.86 1017.71 1017.55 1017.41 1017.31 1017.27 1017.27 1017.29 1017.33 1017.34 1017.32 1017.23 1017.07 1016.86 1016.60 1016.34 1016.09 1015.88 1015.72 1015.62 1015.57 1015.56 1015.56 1015.54 1015.50 1015.42 1015.30 1015.15 1014.97 1014.79 1014.63 1014.48 1014.37 1014.29
1017.64 1017.72 1017.75 1017.74 1017.70 1017.65 1017.58 1017.50 1017.41 1017.32 1017.24 1017.16 1017.11 1017.09 1017.09 1017.13 1017.18 1017.23 1017.27 1017.26 1017.21 1017.10 1016.93 1016.71 1016.47 1016.24 1016.02 1015.84 1015.72 1015.65 1015.62 1015.62 1015.63 1015.62 1015.59 1015.52 1015.40 1015.24 1015.06 1014.87 1014.68 1014.50 1014.36 1014.26
1017.83 1017.84 1017.76 1017.62 1017.45 1017.27 1017.09 1016.93 1016.80 1016.71 1016.66 1016.65 1016.68 1016.74 1016.83 1016.92 1017.02 1017.09 1017.13 1017.12 1017.06 1016.95 1016.78 1016.58 1016.37 1016.16 1015.97 1015.82 1015.71 1015.65 1015.62 1015.62 1015.62 1015.61 1015.58 1015.51 1015.39 1015.24 1015.06 1014.87 1014.67 1014.48 1014.31 1014.18
1017.97 1017.87 1017.69 1017.45 1017.17 1016.88 1016.62 1016.40 1016.24 1016.15 1016.13 1016.17 1016.26 1016.38 1016.52 1016.66 1016.79 1016.88 1016.93 1016.93 1016.88 1016.78 1016.64 1016.48 1016.30 1016.13 1015.97 1015.83 1015.73 1015.66 1015.61 1015.58 1015.56 1015.53 1015.48 1015.40 1015.30 1015.15 1014.99 1014.80 1014.60 1014.41 1014.23 1014.07
1017.97 1017.78 1017.50 1017.16 1016.79 1016.44 1016.13 1015.88 1015.72 1015.64 1015.64 1015.72 1015.86 1016.02 1016.20 1016.37 1016.51 1016.62 1016.68 1016.70 1016.67 1016.61 1016.51 1016.40 1016.27 1016.14 1016.01 1015.89 1015.78 1015.69 1015.61 1015.54 1015.48 1015.42 1015.35 1015.26 1015.15 1015.02 1014.87 1014.69 1014.51 1014.32 1014.13 1013.97
1017.79 1017.50 1017.13 1016.71 1016.29 1015.90 1015.57 1015.33 1015.18 1015.14 1015.18 1015.30 1015.47 1015.67 1015.87 1016.05 1016.21 1016.32 1016.40 1016.44 1016.45 1016.43 1016.39 1016.33 1016.26 1016.18 1016.09 1015.99 1015.88 1015.77 1015.66 1015.55 1015.44 1015.34 1015.24 1015.13 1015.02 1014.90 1014.76 1014.60 1014.43 1014.25 1014.07 1013.89
1017.42 1017.02 1016.57 1016.09 1015.64 1015.24 1014.92 1014.71 1014.61 1014.62 1014.73 1014.90 1015.11 1015.34 1015.55 1015.74 1015.90 1016.02 1016.11 1016.17 1016.21 1016.23 1016.25 1016.26 1016.26 1016.23 1016.19 1016.12 1016.02 1015.90 1015.76 1015.62 1015.47 1015.33 1015.20 1015.07 1014.95 1014.83 1014.70 1014.56 1014.40 1014.23 1014.04 1013.86
1016.86 1016.38 1015.85 1015.33 1014.85 1014.46 1014.18 1014.03 1014.00 1014.08 1014.26 1014.49 1014.75 1015.01 1015.25 1015.45 1015.60 1015.72 1015.81 1015.89 1015.95 1016.02 1016.09 1016.16 1016.22 1016.26 1016.26 1016.23 1016.16 1016.04 1015.90 1015.73 1015.56 1015.39 1015.22 1015.08 1014.95 1014.82 1014.70 1014.56 1014.41 1014.24 1014.06 1013.86
1016.21 1015.63 1015.04 1014.48 1013.99 1013.62 1013.39 1013.30 1013.34 1013.51 1013.77 1014.07 1014.39 1014.70 1014.96 1015.17 1015.33 1015.44 1015.53 1015.60 1015.68 1015.78 1015.88 1016.00 1016.11 1016.20 1016.27 1016.28 1016.24 1016.15 1016.02 1015.85 1015.66 1015.48 1015.30 1015.14 1014.99 1014.86 1014.73 1014.59 1014.44 1014.27 1014.08 1013.87
1015.56 1014.90 1014.24 1013.64 1013.14 1012.78 1012.58 1012.55 1012.68 1012.93 1013.26 1013.64 1014.03 1014.38 1014.67 1014.90 1015.06 1015.17 1015.25 1015.32 1015.39 1015.49 1015.62 1015.76 1015.91 1016.04 1016.15 1016.22 1016.22 1016.17 1016.06 1015.91 1015.74 1015.55 1015.37 1015.19 1015.04 1014.89 1014.74 1014.60 1014.43 1014.25 1014.05 1013.83
1015.03 1014.29 1013.57 1012.91 1012.38 1012.02 1011.84 1011.85 1012.02 1012.34 1012.74 1013.19 1013.64 1014.04 1014.37 1014.62 1014.80 1014.90 1014.97 1015.02 1015.08 1015.17 1015.29 1015.43 1015.60 1015.76 1015.91 1016.01 1016.06 1016.05 1015.98 1015.87 1015.72 1015.54 1015.36 1015.19 1015.02 1014.85 1014.69 1014.52 1014.33 1014.13 1013.91 1013.67
1014.71 1013.90 1013.11 1012.39 1011.81 1011.41 1011.22 1011.23 1011.43 1011.78 1012.22 1012.72 1013.22 1013.67 1014.04 1014.32 1014.50 1014.61 1014.67 1014.71 1014.74 1014.80 1014.90 1015.03 1015.19 1015.36 1015.52 1015.65 1015.74 1015.77 1015.75 1015.67 1015.55 1015.40 1015.24 1015.06 1014.88 1014.69 1014.51 1014.31 1014.10 1013.87 1013.63 1013.38
1014.65 1013.78 1012.91 1012.12 1011.47 1011.01 1010.77 1010.74 1010.91 1011.26 1011.71 1012.24 1012.76 1013.24 1013.65 1013.95 1014.16 1014.28 1014.34 1014.36 1014.37 1014.40 1014.46 1014.56 1014.70 1014.85 1015.01 1015.16 1015.27 1015.34 1015.35 1015.32 1015.24 1015.12 1014.97 1014.79 1014.60 1014.40 1014.19 1013.97 1013.73 1013.48 1013.22 1012.95
1014.85 1013.92 1012.98 1012.11 1011.38 1010.83 1010.50 1010.39 1010.50 1010.80 1011.22 1011.73 1012.26 1012.76 1013.19 1013.52 1013.75 1013.89 1013.95 1013.97 1013.96 1013.96 1013.99 1014.05 1014.15 1014.28 1014.42 1014.57 1014.69 1014.79 1014.84 1014.84 1014.79 1014.70 1014.57 1014.40 1014.21 1013.99 1013.76 1013.51 1013.25 1012.98 1012.70 1012.42
1015.24 1014.27 1013.28 1012.33 1011.50 1010.85 1010.41 1010.19 1010.20 1010.41 1010.77 1011.23 1011.73 1012.22 1012.65 1013.01 1013.26 1013.42 1013.50 1013.52 1013.51 1013.49 1013.49 1013.52 1013.59 1013.69 1013.81 1013.94 1014.07 1014.18 1014.25 1014.28 1014.26 1014.19 1014.08 1013.92 1013.73 1013.51 1013.26 1013.00 1012.72 1012.43 1012.15 1011.88
1015.76 1014.77 1013.73 1012.71 1011.80 1011.04 1010.48 1010.14 1010.03 1010.11 1010.37 1010.74 1011.18 1011.64 1012.06 1012.42 1012.69 1012.88 1012.98 1013.02 1013.02 1013.00 1012.98 1012.99 1013.03 1013.10 1013.21 1013.32 1013.45 1013.56 1013.64 1013.69 1013.70 1013.65 1013.56 1013.42 1013.23 1013.01 1012.76 1012.49 1012.20 1011.91 1011.63 1011.37
1016.30 1015.31 1014.26 1013.20 1012.22 1011.36 1010.69 1010.22 1009.97 1009.92 1010.05 1010.31 1010.67 1011.06 1011.45 1011.79 1012.07 1012.27 1012.40 1012.47 1012.49 1012.48 1012.47 1012.48 1012.51 1012.57 1012.65 1012.76 1012.87 1012.99 1013.08 1013.14 1013.16 1013.14 1013.06 1012.93 1012.76 1012.54 1012.30 1012.03 1011.75 1011.47 1011.20 1010.95
1016.79 1015.83 1014.78 1013.72 1012.69 1011.78 1011.01 1010.42 1010.04 1009.85 1009.84 1009.98 1010.22 1010.52 1010.85 1011.15 1011.42 1011.63 1011.78 1011.88 1011.93 1011.95 1011.97 1011.99 1012.03 1012.09 1012.17 1012.27 1012.38 1012.49 1012.59 1012.66 1012.69 1012.67 1012.61 1012.50 1012.34 1012.14 1011.91 1011.66 1011.40 1011.13 1010.88 1010.65
1017.15 1016.25 1015.25 1014.21 1013.19 1012.24 1011.41 1010.74 1010.24 1009.92 1009.77 1009.77 1009.88 1010.08 1010.32 1010.56 1010.80 1011.00 1011.16 1011.28 1011.37 1011.43 1011.49 1011.54 1011.60 1011.67 1011.77 1011.87 1011.98 1012.09 1012.18 1012.25 1012.29 1012.28 1012.23 1012.13 1011.99 1011.81 1011.60 1011.38 1011.14 1010.90 1010.67 1010.46
1017.38 1016.55 1015.62 1014.65 1013.66 1012.72 1011.87 1011.14 1010.56 1010.13 1009.85 1009.71 1009.69 1009.76 1009.90 1010.06 1010.24 1010.42 1010.58 1010.72 1010.83 1010.94 1011.03 1011.12 1011.22 1011.32 1011.43 1011.54 1011.66 1011.76 1011.85 1011.91 1011.94 1011.94 1011.89 1011.81 1011.68 1011.53 1011.35 1011.15 1010.95 1010.74 1010.54 1010.36
1017.45 1016.71 1015.88 1014.99 1014.08 1013.18 1012.34 1011.60 1010.96 1010.44 1010.06 1009.79 1009.64 1009.59 1009.61 1009.68 1009.79 1009.92 1010.06 1010.20 1010.34 1010.47 1010.60 1010.74 1010.87 1011.00 1011.13 1011.26 1011.37 1011.47 1011.55 1011.60 1011.62 1011.61 1011.57 1011.50 1011.39 1011.27 1011.12 1010.97 1010.80 1010.63 1010.47 1010.31
1017.38 1016.74 1016.01 1015.22 1014.40 1013.59 1012.79 1012.06 1011.40 1010.83 1010.36 1009.99 1009.72 1009.54 1009.45 1009.42 1009.44 1009.51 1009.61 1009.74 1009.88 1010.04 1010.20 1010.37 1010.54 1010.70 1010.85 1010.98 1011.09 1011.18 1011.25 1011.28 1011.29 1011.27 1011.23 1011.17 1011.09 1010.99 1010.89 1010.78 1010.67 1010.55 1010.43 1010.30
1017.18 1016.62 1016.00 1015.32 1014.61 1013.88 1013.16 1012.46 1011.81 1011.21 1010.68 1010.23 1009.87 1009.58 1009.38 1009.24 1009.18 1009.18 1009.23 1009.33 1009.47 1009.63 1009.81 1010.00 1010.19 1010.37 1010.53 1010.66 1010.77 1010.84 1010.89 1010.91 1010.90 1010.87 1010.83 1010.79 1010.74 1010.68 1010.63 1010.58 1010.53 1010.47 1010.40 1010.32
1016.86 1016.38 1015.85 1015.27 1014.66 1014.03 1013.39 1012.74 1012.11 1011.52 1010.96 1010.45 1010.01 1009.64 1009.34 1009.12 1008.97 1008.90 1008.90 1008.96 1009.07 1009.23 1009.41 1009.60 1009.80 1009.98 1010.14 1010.27 1010.36 1010.42 1010.45 1010.45 1010.43 1010.40 1010.37 1010.35 1010.33 1010.33 1010.34 1010.35 1010.37 1010.38 1010.37 1010.33
1016.42 1015.99 1015.54 1015.05 1014.53 1013.99 1013.42 1012.84 1012.25 1011.67 1011.11 1010.58 1010.08 1009.65 1009.28 1008.98 1008.77 1008.63 1008.58 1008.59 1008.67 1008.80 1008.97 1009.15 1009.33 1009.51 1009.66 1009.77 1009.85 1009.89 1009.90 1009.89 1009.87 1009.85 1009.83 1009.84 1009.87 1009.93 1010.00 1010.09 1010.19 1010.27 1010.33 1010.35
1015.87 1015.48 1015.07 1014.65 1014.20 1013.73 1013.24 1012.72 1012.18 1011.63 1011.08 1010.54 1010.03 1009.56 1009.14 1008.80 1008.53 1008.34 1008.23 1008.20 1008.25 1008.34 1008.48 1008.63 1008.79 1008.94 1009.07 1009.16 1009.22 1009.25 1009.25 1009.24 1009.22 1009.21 1009.23 1009.28 1009.36 1009.48 1009.63 1009.80 1009.97 1010.13 1010.25 1010.33
1015.23 1014.85 1014.47 1014.09 1013.69 1013.28 1012.84 1012.37 1011.88 1011.38 1010.85 1010.33 1009.82 1009.34 1008.91 1008.54 1008.24 1008.01 1007.86 1007.79 1007.79 1007.85 1007.94 1008.06 1008.18 1008.30 1008.40 1008.47 1008.51 1008.52 1008.52 1008.51 1008.51 1008.53 1008.58 1008.68 1008.82 1009.00 1009.22 1009.47 1009.71 1009.94 1010.13 1010.26
Thickness
5676 5681 5681 5679 5679 5677 5670 5666 5660 5664 5667 5674 5678 5679 5679 5679 5678 5677 5676 5674 5674 5673 5672 5671 5671 5670 5669 5669 5668 5667 5665 5664 5663 5662 5661 5660 5659 5657 5656 5654 5653 5651 5649 5647
5676 5682 5682 5677 5680 5679 5676 5674 5670 5670 5671 5681 5682 5681 5679 5679 5677 5676 5675 5675 5674 5674 5672 5671 5670 5669 5668 5667 5666 5665 5663 5662 5662 5660 5659 5658 5657 5655 5654 5652 5650 5649 5646 5645
5664 5673 5677 5668 5677 5678 5677 5677 5674 5670 5674 5681 5679 5679 5679 5679 5678 5677 5677 5676 5675 5674 5673 5671 5670 5669 5667 5666 5665 5663 5662 5661 5660 5658 5657 5656 5655 5653 5650 5648 5647 5645 5643 5641
5657 5664 5656 5670 5686 5684 5679 5678 5678 5679 5680 5680 5680 5681 5681 5681 5679 5678 5678 5676 5675 5675 5674 5672 5670 5669 5667 5666 5664 5662 5660 5659 5658 5657 5655 5653 5651 5649 5647 5645 5643 5641 5639 5637
5649 5651 5657 5673 5683 5682 5677 5676 5682 5679 5680 5679 5679 5679 5679 5681 5681 5681 5680 5678 5677 5675 5674 5672 5670 5668 5666 5664 5662 5660 5658 5657 5656 5655 5653 5651 5648 5646 5644 5641 5639 5637 5636 5634
5649 5650 5649 5668 5685 5689 5682 5671 5682 5681 5678 5676 5675 5668 5673 5682 5682 5681 5680 5678 5676 5675 5673 5670 5668 5667 5664 5662 5660 5658 5657 5656 5654 5653 5651 5648 5645 5643 5641 5639 5637 5635 5633 5631
5647 5647 5655 5675 5683 5685 5665 5666 5683 5681 5678 5675 5672 5673 5678 5681 5680 5680 5679 5677 5675 5673 5670 5669 5667 5665 5662 5660 5658 5657 5656 5654 5652 5650 5648 5646 5643 5641 5638 5636 5634 5632 5630 5629
5643 5643 5652 5677 5677 5670 5668 5677 5679 5679 5678 5676 5675 5677 5677 5678 5678 5677 5676 5675 5673 5670 5668 5667 5665 5663 5660 5658 5658 5656 5654 5652 5650 5647 5646 5644 5640 5638 5636 5633 5631 5629 5627 5626
5649 5653 5666 5671 5673 5676 5675 5674 5676 5676 5677 5676 5675 5674 5675 5675 5675 5675 5674 5672 5671 5668 5666 5665 5663 5662 5659 5658 5656 5654 5652 5649 5647 5645 5643 5641 5638 5636 5633 5631 5629 5627 5625 5622
5650 5659 5666 5669 5672 5674 5674 5674 5675 5676 5676 5675 5673 5674 5673 5673 5672 5672 5671 5669 5668 5666 5664 5663 5662 5661 5659 5658 5655 5652 5649 5646 5644 5642 5640 5638 5635 5633 5631 5628 5626 5624 5622 5620
5648 5657 5662 5668 5669 5670 5671 5673 5673 5674 5674 5674 5673 5672 5671 5670 5669 5669 5668 5667 5665 5664 5663 5662 5661 5659 5658 5656 5653 5650 5647 5644 5641 5639 5637 5634 5632 5630 5629 5627 5625 5622 5621 5618
5644 5653 5651 5658 5665 5667 5666 5667 5669 5669 5669 5671 5671 5670 5670 5668 5668 5666 5665 5664 5663 5662 5661 5661 5659 5658 5657 5655 5652 5648 5644 5641 5639 5637 5634 5632 5630 5628 5627 5625 5623 5621 5618 5616
5648 5652 5652 5657 5661 5663 5662 5664 5665 5666 5666 5666 5668 5668 5667 5665 5664 5664 5663 5662 5662 5661 5660 5659 5657 5656 5655 5653 5650 5647 5643 5640 5637 5635 5633 5630 5628 5626 5624 5623 5622 5619 5617 5614
5647 5648 5648 5652 5654 5657 5658 5659 5660 5661 5662 5663 5663 5663 5662 5661 5660 5660 5660 5661 5661 5659 5658 5657 5656 5654 5654 5652 5649 5645 5642 5639 5636 5633 5631 5628 5626 5624 5622 5620 5618 5617 5615 5612
5643 5644 5644 5647 5649 5651 5652 5653 5652 5653 5655 5656 5657 5657 5657 5656 5656 5657 5658 5659 5658 5656 5655 5654 5653 5652 5652 5650 5647 5644 5641 5637 5634 5631 5629 5627 5625 5622 5620 5617 5615 5614 5612 5610
5638 5639 5640 5641 5643 5644 5645 5646 5646 5647 5649 5650 5651 5652 5653 5654 5654 5654 5655 5655 5654 5653 5653 5652 5651 5651 5650 5648 5645 5642 5639 5636 5633 5630 5627 5624 5622 5620 5618 5616 5614 5612 5610 5608
5629 5631 5633 5634 5637 5639 5640 5641 5642 5643 5644 5645 5646 5648 5648 5649 5648 5649 5650 5651 5652 5652 5652 5651 5650 5649 5647 5645 5642 5639 5637 5634 5631 5628 5626 5623 5621 5619 5617 5615 5613 5611 5609 5607
5627 5628 5629 5630 5631 5633 5635 5637 5639 5640 5640 5643 5643 5643 5643 5643 5644 5645 5647 5647 5647 5647 5648 5649 5648 5647 5645 5643 5640 5637 5635 5633 5630 5627 5624 5622 5619 5617 5615 5613 5611 5609 5608 5606
5622 5623 5624 5626 5628 5629 5630 5631 5633 5635 5636 5637 5638 5638 5640 5641 5642 5643 5643 5642 5642 5643 5646 5647 5645 5644 5642 5641 5638 5635 5633 5630 5628 5625 5622 5620 5617 5615 5614 5612 5610 5608 5606 5604
5615 5617 5618 5620 5622 5623 5624 5626 5628 5629 5631 5632 5632 5633 5634 5636 5637 5638 5637 5638 5640 5643 5644 5644 5642 5641 5640 5638 5636 5633 5631 5628 5626 5623 5621 5619 5616 5614 5613 5611 5609 5607 5605 5603
5607 5608 5611 5612 5614 5616 5618 5619 5621 5622 5624 5626 5627 5628 5630 5632 5632 5632 5632 5633 5638 5639 5639 5639 5638 5637 5636 5635 5633 5630 5628 5626 5624 5622 5619 5617 5615 5613 5612 5610 5608 5606 5604 5601
5599 5601 5603 5604 5607 5608 5611 5612 5614 5616 5617 5619 5621 5623 5624 5625 5627 5627 5629 5631 5635 5635 5635 5635 5635 5634 5633 5631 5629 5627 5625 5623 5622 5619 5617 5616 5614 5612 5610 5608 5606 5604 5602 5600
5590 5592 5595 5597 5599 5600 5603 5605 5608 5610 5612 5613 5615 5617 5619 5621 5622 5622 5624 5628 5630 5630 5631 5631 5631 5630 5628 5627 5626 5624 5623 5621 5619 5618 5616 5614 5613 5611 5609 5607 5605 5603 5601 5598
5583 5585 5588 5590 5592 5593 5596 5599 5602 5604 5606 5608 5611 5613 5614 5615 5616 5619 5622 5624 5625 5626 5626 5627 5626 5625 5624 5623 5622 5621 5620 5619 5617 5616 5615 5613 5611 5610 5608 5606 5604 5602 5600 5597
5576 5578 5580 5582 5584 5587 5589 5592 5595 5597 5600 5602 5605 5608 5611 5612 5613 5616 5618 5619 5620 5620 5621 5622 5621 5620 5620 5620 5619 5618 5618 5617 5616 5614 5612 5610 5609 5608 5606 5604 5602 5600 5598 5595
5568 5569 5572 5575 5578 5580 5583 5585 5587 5590 5592 5595 5599 5602 5605 5607 5609 5611 5612 5614 5614 5615 5616 5616 5616 5616 5616 5616 5616 5615 5615 5615 5613 5612 5610 5609 5607 5606 5604 5602 5600 5598 5595 5593
5561 5564 5566 5569 5573 5575 5577 5580 5582 5585 5587 5590 5593 5596 5599 5601 5603 5605 5607 5608 5609 5610 5611 5611 5611 5611 5611 5612 5612 5612 5612 5611 5610 5609 5608 5606 5605 5603 5602 5599 5597 5595 5593 5590